AU224 Weather Reports


time (UTC)temp
C
wind
direction
speed
KPH
gust
KPH
rain 1hr
cm
rain 24hr
cm
rain mn
cm
humidity
%
barometer
mb
20260508233044 8 0 0.0 0.0 0.00 0.00 0.00 70 1013.4
20260508231551 9 0 0.0 0.0 0.00 0.00 0.00 70 1013.4
20260508230050 9 0 0.0 0.0 0.00 0.00 0.00 70 1013.5
20260508224551 9 0 0.0 0.0 0.00 0.00 0.00 70 1013.5
20260508223047 9 0 0.0 0.0 0.00 0.00 0.00 70 1013.4
20260508221541 10 0 0.0 0.0 0.00 0.00 0.00 69 1013.5
20260508220048 10 0 0.0 0.0 0.00 0.00 0.00 68 1013.4
20260508214550 10 0 0.0 0.0 0.00 0.00 0.00 67 1013.4
20260508213043 10 0 0.0 0.0 0.00 0.00 0.00 67 1013.4
20260508211548 11 0 0.0 0.0 0.00 0.00 0.00 66 1013.2
20260508210044 11 0 0.0 0.0 0.00 0.00 0.00 66 1013.2
20260508204550 11 0 0.0 0.0 0.00 0.00 0.00 65 1013.2
20260508203040 11 0 0.0 0.0 0.00 0.00 0.00 64 1013.2
20260508201543 12 0 0.0 0.0 0.00 0.00 0.00 63 1013.2
20260508200104 12 0 0.0 0.0 0.00 0.00 0.00 62 1013.0
20260508194541 12 0 0.0 3.2 0.00 0.00 0.00 61 1013.0
20260508193103 13 0 0.0 4.8 0.00 0.00 0.00 60 1012.8
20260508191542 13 0 0.0 3.2 0.00 0.00 0.00 59 1012.6
20260508190040 14 94 0.0 3.2 0.00 0.00 0.00 58 1012.4
20260508184546 15 0 0.0 1.6 0.00 0.00 0.00 57 1012.2
20260508183057 15 0 0.0 9.7 0.00 0.00 0.00 56 1012.1
20260508181559 15 0 0.0 9.7 0.00 0.00 0.00 56 1012.0
20260508180043 15 71 1.6 11.3 0.00 0.00 0.00 55 1011.8
20260508174544 16 0 1.6 16.1 0.00 0.00 0.00 53 1011.7
20260508173049 16 52 1.6 12.9 0.00 0.00 0.00 52 1011.5
20260508171545 17 76 3.2 19.3 0.00 0.00 0.00 51 1011.5
20260508170052 17 0 1.6 16.1 0.00 0.00 0.00 51 1011.2
20260508164549 17 360 3.2 14.5 0.00 0.00 0.00 50 1011.3
20260508163047 17 0 0.0 11.3 0.00 0.00 0.00 50 1011.3
20260508161551 18 53 1.6 16.1 0.00 0.00 0.00 48 1011.3
20260508160041 19 65 0.0 12.9 0.00 0.00 0.00 47 1011.4
20260508154606 19 103 0.0 19.3 0.00 0.00 0.00 50 1011.3
20260508153049 19 0 0.0 9.7 0.00 0.00 0.00 46 1011.4
20260508151541 18 0 0.0 11.3 0.00 0.00 0.00 48 1011.5
20260508150047 17 0 0.0 6.4 0.00 0.00 0.00 50 1011.6
20260508144559 18 57 6.4 14.5 0.00 0.00 0.00 48 1011.8
20260508143043 19 76 1.6 12.9 0.00 0.00 0.00 49 1011.7
20260508141542 18 125 1.6 12.9 0.00 0.00 0.00 48 1011.7
20260508140043 19 0 0.0 16.1 0.00 0.00 0.00 47 1011.9
20260508134554 18 55 1.6 12.9 0.00 0.00 0.00 49 1012.1
20260508133051 18 360 0.0 12.9 0.00 0.00 0.00 51 1012.1
20260508131547 18 28 3.2 14.5 0.00 0.00 0.00 49 1012.1
20260508130042 17 0 1.6 12.9 0.00 0.00 0.00 52 1012.3
20260508124541 18 0 1.6 14.5 0.00 0.00 0.00 51 1012.4
20260508123051 18 0 1.6 14.5 0.00 0.00 0.00 52 1012.5
20260508121552 17 26 0.0 12.9 0.00 0.00 0.00 53 1012.6
20260508120042 18 0 0.0 16.1 0.00 0.00 0.00 52 1012.4
20260508114548 18 0 0.0 14.5 0.00 0.00 0.00 54 1012.4
20260508113054 17 0 1.6 16.1 0.00 0.00 0.00 55 1012.5
20260508111552 17 55 1.6 11.3 0.00 0.00 0.00 57 1012.6
20260508110048 17 86 1.6 14.5 0.00 0.00 0.00 58 1012.8
20260508104544 16 360 1.6 14.5 0.00 0.00 0.00 56 1012.8
20260508103045 16 61 0.0 17.7 0.00 0.00 0.00 61 1012.9
20260508101542 16 0 0.0 8.0 0.00 0.00 0.00 61 1013.0
20260508100059 16 0 1.6 9.7 0.00 0.00 0.00 60 1013.2
20260508094601 15 77 0.0 16.1 0.00 0.00 0.00 64 1013.1
20260508093048 15 0 1.6 14.5 0.00 0.00 0.00 67 1013.1
20260508091547 13 119 1.6 11.3 0.00 0.00 0.00 68 1013.1
20260508090107 13 67 0.0 12.9 0.00 0.00 0.00 70 1013.2
20260508084548 13 0 3.2 11.3 0.00 0.00 0.00 67 1013.1
20260508083040 12 74 3.2 14.5 0.00 0.00 0.00 71 1013.0
20260508081602 12 56 1.6 11.3 0.00 0.00 0.00 72 1013.0
20260508080043 11 29 1.6 9.7 0.00 0.00 0.00 75 1013.1
20260508074546 11 0 1.6 8.0 0.00 0.00 0.00 75 1013.1
20260508073103 10 0 0.0 0.0 0.00 0.00 0.00 78 1013.2
20260508071548 9 0 0.0 6.4 0.00 0.00 0.00 79 1013.0
20260508070049 9 0 0.0 1.6 0.00 0.00 0.00 82 1012.9
20260508064557 8 0 0.0 4.8 0.00 0.00 0.00 80 1013.0
20260508063055 8 0 0.0 0.0 0.00 0.00 0.00 80 1012.9
20260508061550 8 0 0.0 0.0 0.00 0.00 0.00 82 1012.8
20260508054550 6 0 0.0 0.0 0.00 0.00 0.00 86 1012.6
20260508053041 6 0 0.0 0.0 0.00 0.00 0.00 86 1012.6
20260508051604 5 0 0.0 0.0 0.00 0.00 0.00 86 1012.5
20260508050045 5 0 0.0 3.2 0.00 0.00 0.00 85 1012.4
20260508044547 3 0 0.0 0.0 0.00 0.00 0.00 84 1012.2
20260508043046 2 0 0.0 0.0 0.00 0.00 0.00 81 1012.1
20260508041552 3 0 0.0 0.0 0.00 0.00 0.00 81 1012.0
20260508040052 3 0 0.0 0.0 0.00 0.00 0.00 80 1012.0
20260508034550 3 0 0.0 0.0 0.00 0.00 0.00 80 1012.0
20260508033055 3 0 0.0 0.0 0.00 0.00 0.00 80 1011.9
20260508031555 3 0 0.0 0.0 0.00 0.00 0.00 80 1011.8
20260508030058 3 0 0.0 0.0 0.00 0.00 0.00 80 1011.8
20260508024613 4 0 0.0 0.0 0.00 0.00 0.00 81 1011.7
20260508023045 4 0 0.0 0.0 0.00 0.00 0.00 81 1011.9
20260508021551 4 0 0.0 0.0 0.00 0.00 0.00 81 1011.9
20260508020050 4 0 0.0 0.0 0.00 0.00 0.00 81 1011.9
20260508014553 4 0 0.0 0.0 0.00 0.00 0.00 81 1012.1
20260508013042 4 0 0.0 0.0 0.00 0.00 0.00 80 1012.1
20260508011547 4 0 0.0 0.0 0.00 0.00 0.00 79 1012.0
20260508010054 5 0 0.0 0.0 0.00 0.00 0.00 78 1012.0
20260508004552 5 0 0.0 0.0 0.00 0.00 0.00 78 1012.2
20260508003049 5 0 0.0 0.0 0.00 0.00 0.00 78 1012.3
20260508001550 5 0 0.0 0.0 0.00 0.00 0.00 78 1012.3
20260508000048 5 0 0.0 0.0 0.00 0.00 0.00 77 1012.5
20260507234556 6 0 0.0 0.0 0.00 0.00 0.00 77 1012.7